User: anonymous   Login
Location: Unspecified
(0.0000°N, 0.0000°E)
Time: 22:32:27
(UTC+00:00)
Language:

USA 271 - Orbit

View from above orbital plane
View from above orbital plane
View from above satellite
View from above satellite

Ground track
Ground track

The orbit data is extracted from the following two-line orbital elements,

1 41745U 16052B   17135.74762491 0.00000000  00000-0  00000-0 0    05
2 41745   0.0413  76.8274 0004418 221.3997 138.5925  1.00129029    02
Epoch (UTC): 15 May 2017 17:56:34
Eccentricity: 0.0004418
inclination: 0.0413°
perigee height: 35807 km
apogee height: 35845 km
right ascension of ascending node: 76.8274°
argument of perigee: 221.3997°
revolutions per day: 1.00129029
mean anomaly at epoch: 138.5925°
orbit number at epoch: 0

The dashed part of the orbit path shows where the satellite is in the earth's shadow,  

DLR